Total_Precipitation_Accumulation
1.82 1.85 1.79 1.80 1.69 1.89 2.21 2.28 2.19 2.38 2.41 2.21 1.98 1.79 1.70 1.55 1.41 1.44 1.54 1.47 1.36 1.45 1.72 1.83 1.68 1.56 1.46 1.29 1.13 1.07 1.03 0.95 0.90 0.76 0.63 0.61 0.71 0.70 0.59 0.50 0.44 0.39 0.37
2.27 2.31 2.16 2.09 1.95 1.99 2.17 2.29 2.33 2.78 2.66 2.50 2.06 1.85 1.79 1.76 1.62 1.57 1.63 1.74 1.47 1.34 1.47 1.76 1.91 1.88 1.78 1.59 1.39 1.25 1.12 1.03 0.92 0.71 0.59 0.55 0.63 0.73 0.69 0.61 0.51 0.41 0.31
2.40 2.46 2.43 2.28 2.21 2.19 2.31 2.33 2.53 2.78 2.48 2.35 2.07 1.96 1.86 1.74 1.59 1.60 1.78 1.94 1.74 1.50 1.35 1.46 1.76 1.92 1.96 1.96 1.84 1.57 1.30 1.11 0.97 0.76 0.60 0.55 0.58 0.67 0.67 0.68 0.63 0.47 0.32
2.44 2.51 2.31 2.18 2.41 2.50 2.56 2.67 2.75 2.77 2.60 2.51 2.33 2.01 1.86 1.77 1.42 1.42 1.49 1.55 1.67 1.49 1.57 1.68 1.82 1.88 2.06 2.19 2.20 2.14 1.83 1.43 1.18 0.98 0.78 0.67 0.68 0.70 0.64 0.63 0.62 0.49 0.35
2.26 2.41 2.25 2.29 2.48 2.57 2.60 2.39 2.72 2.70 2.67 2.59 2.19 1.93 1.66 1.49 1.34 1.19 1.20 1.14 1.25 1.30 1.39 1.53 1.67 1.67 1.98 2.34 2.51 2.59 2.45 2.04 1.59 1.32 1.20 1.01 0.90 0.80 0.70 0.66 0.61 0.55 0.42
2.32 2.47 2.32 2.39 2.50 2.58 2.55 2.56 2.71 2.72 2.56 2.54 2.04 1.74 1.49 1.20 1.21 1.15 0.99 1.02 1.06 0.99 1.06 1.27 1.56 1.36 1.70 2.05 2.24 2.55 2.77 2.62 2.17 1.80 1.64 1.51 1.36 1.12 0.87 0.78 0.74 0.67 0.55
2.40 2.57 2.45 2.57 2.56 2.41 2.39 2.55 2.70 2.54 2.30 2.47 2.29 1.69 1.26 1.04 1.05 0.99 1.00 1.07 1.00 0.98 1.13 1.39 1.49 1.41 1.36 1.46 1.52 1.83 2.39 2.77 2.68 2.30 1.97 1.79 1.76 1.63 1.22 1.07 0.99 0.88 0.76
2.30 2.25 2.32 2.25 2.28 2.35 2.35 2.40 2.56 2.38 2.00 2.19 2.19 1.94 1.38 1.15 0.94 0.80 0.96 0.99 0.96 1.07 1.13 1.27 1.52 1.66 1.54 1.65 1.36 1.32 1.87 2.51 2.81 2.77 2.42 2.13 2.03 1.94 1.61 1.47 1.27 1.05 0.92
1.96 1.95 1.95 2.06 2.28 2.34 2.30 2.33 2.34 2.20 1.88 1.86 1.99 2.09 1.59 1.21 0.97 0.71 0.74 0.88 1.04 1.23 1.20 1.34 1.45 1.61 1.69 1.86 1.86 1.62 1.55 1.74 2.25 2.84 2.83 2.51 2.19 1.95 1.97 2.00 1.79 1.38 1.08
1.81 1.74 1.74 1.80 1.86 1.89 1.92 1.81 1.92 2.05 2.02 1.82 1.88 1.88 1.71 1.52 1.36 0.95 0.75 0.78 0.95 1.09 1.19 1.18 1.19 1.32 1.60 1.96 2.05 1.79 1.54 1.39 1.56 2.27 2.79 2.82 2.49 2.17 2.13 2.26 2.41 2.07 1.50
1.69 1.63 1.55 1.53 1.45 1.46 1.57 1.59 1.68 1.75 1.77 1.74 1.76 1.80 1.75 1.69 1.62 1.45 1.10 1.03 1.01 0.90 0.98 1.06 1.10 1.16 1.45 1.71 1.87 1.75 1.71 1.51 1.46 1.64 2.02 2.38 2.45 2.34 2.25 2.37 2.73 2.78 2.39
1.50 1.40 1.35 1.37 1.33 1.33 1.40 1.46 1.53 1.50 1.57 1.62 1.63 1.67 1.72 1.69 1.70 1.72 1.42 1.28 1.19 1.00 0.99 0.96 0.98 1.03 1.25 1.42 1.37 1.48 1.49 1.34 1.26 1.31 1.47 1.75 1.92 2.04 2.11 2.32 2.70 3.03 3.05
1.17 1.10 1.04 1.15 1.18 1.24 1.27 1.26 1.32 1.40 1.51 1.57 1.57 1.61 1.63 1.59 1.58 1.64 1.59 1.36 1.24 1.10 1.12 1.05 0.94 0.97 0.98 1.26 1.27 1.16 1.02 0.93 0.91 0.94 0.95 1.10 1.32 1.48 1.65 1.89 2.22 2.56 2.83
0.90 0.94 1.01 1.10 1.17 1.19 1.15 1.18 1.16 1.20 1.33 1.46 1.50 1.68 1.59 1.46 1.49 1.56 1.65 1.62 1.42 1.26 1.26 1.12 0.99 0.93 0.96 1.07 1.04 0.90 0.83 0.74 0.71 0.69 0.67 0.70 0.78 0.91 1.06 1.27 1.54 1.77 1.97
0.92 0.92 0.95 1.02 1.11 1.21 1.21 1.18 1.16 1.23 1.37 1.44 1.55 1.65 1.58 1.53 1.54 1.53 1.63 1.72 1.67 1.48 1.29 1.20 1.08 0.96 0.93 0.92 0.89 0.88 0.86 0.75 0.65 0.60 0.56 0.54 0.57 0.60 0.69 0.85 1.02 1.19 1.30
0.92 0.89 0.91 0.94 0.93 0.97 1.04 1.04 1.08 1.17 1.32 1.38 1.39 1.44 1.49 1.52 1.64 1.58 1.62 1.70 1.75 1.66 1.36 1.27 1.18 0.98 1.03 0.81 0.79 0.82 0.83 0.73 0.58 0.51 0.49 0.49 0.51 0.55 0.57 0.62 0.73 0.88 1.03
0.84 0.83 0.83 0.78 0.74 0.73 0.76 0.83 0.92 1.04 1.08 1.09 1.06 1.10 1.15 1.23 1.36 1.38 1.44 1.51 1.62 1.67 1.42 1.37 1.49 1.36 1.33 1.11 0.95 0.87 0.73 0.69 0.62 0.52 0.46 0.44 0.45 0.49 0.55 0.57 0.57 0.64 0.75
0.73 0.75 0.73 0.69 0.64 0.64 0.72 0.76 0.83 0.89 0.95 0.93 0.92 0.93 0.90 0.98 1.13 1.17 1.25 1.35 1.51 1.71 1.56 1.49 1.62 1.66 1.57 1.38 1.25 1.08 0.81 0.65 0.68 0.64 0.49 0.43 0.41 0.44 0.51 0.55 0.53 0.53 0.57
0.61 0.63 0.66 0.67 0.67 0.72 0.82 0.91 0.96 0.90 0.80 0.74 0.70 0.68 0.67 0.74 0.86 0.98 1.11 1.17 1.28 1.59 1.66 1.53 1.58 1.82 1.80 1.63 1.58 1.32 1.12 1.02 0.76 0.70 0.57 0.46 0.44 0.44 0.49 0.57 0.58 0.54 0.52
0.64 0.69 0.71 0.76 0.80 0.82 0.82 0.86 0.86 0.88 0.82 0.70 0.57 0.49 0.47 0.56 0.69 0.82 0.92 1.03 1.15 1.31 1.51 1.57 1.57 1.78 1.88 1.77 1.87 1.66 1.42 1.26 1.03 0.80 0.72 0.54 0.48 0.49 0.49 0.52 0.57 0.60 0.62
0.57 0.69 0.77 0.80 0.87 0.81 0.72 0.72 0.73 0.67 0.67 0.66 0.58 0.46 0.41 0.44 0.51 0.63 0.68 0.81 0.97 1.13 1.24 1.40 1.52 1.67 1.90 1.91 1.78 1.76 1.59 1.42 1.31 1.19 1.16 0.83 0.57 0.49 0.48 0.50 0.56 0.64 0.71
0.54 0.62 0.62 0.67 0.73 0.63 0.56 0.55 0.57 0.58 0.59 0.60 0.58 0.54 0.46 0.41 0.40 0.45 0.50 0.57 0.66 0.78 0.96 1.17 1.29 1.43 1.67 1.87 1.85 1.87 1.78 1.54 1.42 1.35 1.41 1.42 1.09 0.84 0.67 0.49 0.49 0.58 0.71
0.59 0.62 0.61 0.61 0.62 0.68 0.59 0.51 0.48 0.49 0.54 0.57 0.56 0.55 0.43 0.36 0.39 0.39 0.41 0.43 0.49 0.49 0.57 0.79 0.94 1.01 1.18 1.48 1.80 1.92 1.99 1.84 1.64 1.60 1.62 1.71 1.79 1.53 1.04 0.73 0.63 0.55 0.63
0.74 0.74 0.67 0.65 0.66 0.65 0.62 0.54 0.50 0.44 0.47 0.51 0.54 0.51 0.49 0.45 0.45 0.49 0.50 0.47 0.41 0.40 0.41 0.45 0.54 0.73 0.89 1.14 1.51 1.72 1.96 2.13 2.00 1.90 1.87 1.94 2.01 2.22 1.77 1.21 0.98 0.76 0.71
0.82 0.82 0.77 0.74 0.74 0.71 0.64 0.55 0.54 0.53 0.53 0.53 0.56 0.56 0.55 0.53 0.52 0.47 0.49 0.51 0.44 0.42 0.40 0.42 0.46 0.61 0.80 0.92 1.20 1.54 1.78 1.89 1.96 2.03 2.03 2.09 2.07 2.21 2.53 2.11 1.43 1.04 0.82
0.96 0.93 0.87 0.88 0.90 0.90 0.80 0.66 0.63 0.62 0.64 0.65 0.73 0.70 0.59 0.51 0.51 0.47 0.45 0.51 0.50 0.49 0.53 0.52 0.52 0.56 0.63 0.75 0.96 1.23 1.45 1.62 1.66 1.79 1.72 1.68 1.71 1.84 2.28 2.57 2.23 1.61 1.15